STARLINK-35899 (66497 NORAD) Tracking and Keplerian Element Data

This shows tracking and keplerian element data for the satellite.

Feedback or suggestion? Click here.




ElementValue
Catalog66497
NameSTARLINK-35899
Epoch Orbit609
Epoch Day354.25003472
Epoch Year2025
RAAN81.2943
Inclination43.0008
Eccentricity0.0001518
Argument of Perigee253.5914
Mean Anonmoly223.8898
Mean Motion15.40660212
Decay Rate0.00036212
L11 66497U 25263N 25354.25003472 .00036212 00000+0 87116-3 0 9991
L22 66497 43.0008 81.2943 0001518 253.5914 223.8898 15.40660212 6092



Live tracking and technical data element details for STARLINK-35899 (NORAD 66497). STARLINK-35899 can be tracked NOW for your location showing map with azimuth and elevation plus other details from your city location.







IsCatalogInMostPopularTable: catalog: 66497, numindb: 4
Update: records affected: 1



GetName: 66497 STARLINK-35899

Hit Count: updated at: Mon, 09 Feb 2026 08:05:46 GMT